#timestamp,LO_Frequency,Hit,StdDev 
1549846815.5,286047006.0,N
1549846835.4,286047002.0,N
1549846855.2,286047001.5,N
1549846875.1,286047002.5,N
1549846876.0,286047002.5,N
1549846895.8,286047002.2,N
1549846915.6,286047002.0,N
1549846935.5,286047001.8,N
1549846955.3,286047002.7,N
1549846975.1,286047001.5,N
1549846995.9,286047005.0,N
1549847015.7,286047007.1,N
1549847035.6,286047008.3,Y
1549847055.4,286047005.2,P
1549847075.2,286047006.9,P
1549847095.1,286047006.3,P
1549847096.0,286047006.3,Y
1549847115.8,286046999.7,P
1549847135.7,286047002.3,N
1549847155.5,286047001.0,N
1549847175.3,286046998.4,N
1549847195.2,286046997.4,N
1549847215.9,286046996.8,N
1549847235.7,286046995.3,N
1549847255.6,286046998.0,N
1549847275.4,286046996.2,N
1549847295.2,286046995.3,N
1549847315.1,286046993.5,N
1549847316.0,286046993.5,N
1549847335.8,286046994.8,N
1549847355.7,286046991.8,N
1549847375.5,286046991.9,N
1549847395.3,286046992.6,N
1549847415.2,286046992.7,N
1549847435.0,286046990.4,N
1549847435.9,286046990.4,N
1549847455.8,286046990.4,N
1549847475.6,286046992.1,N
1549847495.4,286046995.0,N
1549847515.3,286046996.7,N
1549847535.1,286046997.1,N
1549847536.0,286046997.1,N
1549847555.8,286046997.0,N
1549847575.7,286046995.2,N
1549847595.5,286046996.8,N
1549847615.3,286046996.5,N
1549847635.2,286046997.6,N
1549847655.0,286046997.2,N
1549847655.9,286046997.2,N
1549847675.8,286046997.8,N
1549847695.6,286046996.2,N
1549847715.4,286046998.0,N
1549847735.3,286046994.9,N
1549847755.1,286046996.0,N
1549847775.8,286046993.4,N
1549847795.7,286046994.9,N
1549847815.5,286046996.2,N
1549847835.4,286046993.7,N
1549847855.2,286046993.8,N
1549847875.0,286046992.3,Y
1549847875.9,286046992.3,P
1549847895.8,286046997.7,N
1549847915.6,286046999.0,N
1549847935.4,286046998.7,N
1549847955.3,286047001.2,N
1549847975.1,286046998.9,N
1549847995.9,286046998.8,N
1549848015.7,286047001.2,N
1549848035.5,286047001.2,N
1549848055.4,286047000.2,N
1549848075.2,286046999.8,N
1549848095.0,286047001.4,N
1549848095.9,286047001.4,N
1549848115.8,286047001.4,N
1549848135.6,286047004.2,N
1549848155.5,286047003.7,N
1549848175.3,286047003.9,N
1549848195.1,286047007.0,N
1549848215.9,286047007.4,N
1549848235.7,286047007.6,N
1549848255.5,286047003.1,N
1549848275.4,286047004.2,N
1549848295.2,286047001.6,N
1549848315.1,286047002.1,N
1549848316.0,286047002.1,N
1549848335.8,286047002.0,N
1549848355.6,286047005.9,N
1549848375.5,286047005.2,N
1549848395.3,286047004.8,N
1549848415.1,286047003.1,N
1549848435.9,286047006.0,N
1549848455.7,286047003.6,N
1549848475.6,286047004.0,N
1549848495.4,286047002.8,N
1549848515.2,286047002.8,N
1549848535.1,286047002.3,N
1549848536.0,286047002.3,N
1549848555.8,286047002.4,N
1549848575.6,286047000.0,N
1549848595.5,286047002.6,N
1549848615.3,286047000.7,N
1549848635.2,286046998.5,N
1549848655.9,286047000.9,N
1549848675.7,286046998.3,N
1549848695.6,286046999.5,N
1549848715.4,286046998.4,N
1549848735.2,286047000.9,N
1549848755.1,286047000.5,N
1549848756.0,286047000.5,N
1549848775.8,286047000.1,N
1549848795.7,286046999.7,N
1549848815.5,286047002.6,N
1549848835.3,286047001.4,N
1549848855.2,286047005.8,N
1549848875.0,286047005.4,N
1549848875.9,286047005.4,N
1549848895.7,286047005.2,N
1549848915.6,286047004.7,N
1549848935.4,286047007.4,Y
1549848955.3,286047007.1,P
1549848975.1,286047005.7,N
1549848976.0,286047005.7,N
1549848995.8,286047004.6,N
1549849015.7,286047007.0,Y
1549849035.5,286047001.4,P
1549849055.4,286047004.4,N
1549849075.2,286047002.8,N
1549849095.0,286047000.0,N
1549849095.9,286047000.0,N
1549849115.8,286046998.2,N
1549849135.6,286046998.1,N
1549849155.4,286046997.4,N
1549849175.3,286046995.4,N
1549849195.1,286046995.3,N
1549849215.9,286046996.8,N
1549849235.7,286046997.5,N
1549849255.5,286046995.9,N
1549849275.4,286046995.4,N
1549849295.2,286046997.7,N
1549849315.0,286046996.7,N
1549849315.9,286046996.7,N
1549849335.8,286046995.3,N
1549849355.6,286046993.7,N
1549849375.5,286046995.8,N
1549849395.3,286046996.2,N
1549849415.1,286046991.8,N
1549849435.9,286046994.8,N
1549849455.7,286046993.8,N
1549849475.5,286046993.5,N
1549849495.4,286046995.5,N
1549849515.2,286046997.1,N
1549849535.0,286046995.2,N
1549849536.0,286046995.2,N
1549849555.8,286046996.4,N
1549849575.6,286046993.6,N
1549849595.5,286046994.1,N
1549849615.3,286046994.2,N
1549849635.1,286046993.6,Y
1549849655.9,286046997.5,P
1549849675.7,286046994.9,P
1549849695.6,286046997.8,N
1549849715.4,286046997.5,N
1549849735.2,286046997.5,N
1549849755.1,286046998.0,N
1549849756.0,286046998.0,N
1549849775.8,286046999.5,N
1549849795.6,286046997.3,N
1549849815.5,286046996.5,Y
1549849835.3,286046998.3,P
1549849855.2,286046996.7,P
1549849875.9,286046998.6,N
1549849895.7,286046998.8,N
1549849915.6,286047002.3,N
1549849935.4,286047002.3,N
1549849955.2,286047004.1,N
1549849975.1,286047003.9,N
1549849976.0,286047003.9,N
1549849995.8,286047011.9,Y
1549850015.7,286047003.2,P
1549850035.5,286047003.9,P
1549850055.3,286047004.4,P
1549850075.2,286046999.7,N
1549850095.0,286047000.2,N
1549850095.9,286047000.2,N
1549850115.8,286047000.4,N
1549850135.6,286047000.4,N
1549850155.4,286047000.5,N
1549850175.3,286047000.7,N
1549850195.1,286047002.5,N
1549850215.9,286047002.4,N
1549850235.7,286047000.2,N
1549850255.5,286047000.4,N
1549850275.4,286047000.9,N
1549850295.2,286047000.7,N
1549850315.0,286047000.7,N
1549850315.9,286047000.7,N
1549850335.8,286046998.2,N
1549850355.6,286047001.0,N
1549850375.5,286047001.1,N
1549850395.3,286047000.7,N
